Location: �perlecques
(50.8057°N, 2.1521°E)
Time: 19:28:43
(UTC+00:00)

Vanguard 3 - Pass Details

Date: 03 August 2021
Orbit: 510 x 3260 km, 33.3° (Epoch: 17 September)

Event Time Altitude Azimuth Distance (km) Brightness Sun altitude
Rises 19:54:38 0° 257° (WSW) 6,081 12.3 -3.7°
Reaches altitude 10° 19:58:31 10° 250° (WSW) 5,377 11.9 -4.2°
Maximum altitude 20:14:03 43° 188° (S) 4,039 10.5 -6.2°
Drops below altitude 10° 20:31:31 10° 126° (SE) 5,997 10.9 -8.4°
Enters shadow 20:32:01 - 126° (SE) 6,081 10.9 -8.4°
